Home   Weather   41°56'N, 72°36'W   Past weeks
Flag for USA

Past Weather in 41°56'N, 72°36'W, USA — Yesterday and Last 2 Weeks

Now
47 °F

Overcast.


Feels Like: 43 °F
Forecast: 58 / 37 °F
Wind: 7 mph from Northwest

Location: Hartford-Brainard Airport

Current Time: Oct 19, 2019 at 1:48:57 am

Latest Report: Oct 19, 2019 at 12:53 am


Visibility: 10 mi

Pressure: 29.99 "Hg

Humidity: 61%

Dew Point: 34 °F

Location of 41°56'N, 72°36'WLocation

Past Weather in 41°56'N, 72°36'W — Graph

°F

41°56'N, 72°36'W Temperature Yesterday

Maximum temperature yesterday: 59 °F (at 1:53 pm)
Minimum temperature yesterday: 48 °F (at 9:53 pm)
Average temperature yesterday: 52 °F

High & Low Weather Summary for the Past Weeks

 TemperatureHumidityPressure
High75 °F (Oct 7, 12:53 pm)100% (Oct 4, 7:35 am)30.48 "Hg (Oct 4, 7:35 am)
Low37 °F (Oct 5, 6:53 am)32% (Oct 5, 3:53 pm)28.97 "Hg (Oct 17, 2:00 am)
Average55 °F72%30.03 "Hg
* Reported Oct 3 11:17 pm — Oct 18 11:53 pm, 41°56'N, 72°36'W. Weather by CustomWeather, © 2019

Note: Actual official high and low records may vary slightly from our data, if they occured in-between our weather recording intervals... More about our weather records

Advertising

41°56'N, 72°36'W Weather History for the Previous 24 Hours

Scroll right to see more
 ConditionsComfort  
Time TempWeatherWind HumidityBarometerVisibility
11:53 pm
Fri, Oct 18
48 °FOvercast.13 mph61%29.98 "Hg10 mi
10:53 pm49 °FOvercast.10 mph61%29.97 "Hg10 mi
9:53 pm48 °FOvercast.8 mph66%29.96 "Hg10 mi
8:53 pm49 °FOvercast.6 mph64%29.94 "Hg10 mi
7:53 pm49 °FPassing clouds.7 mph64%29.92 "Hg10 mi
6:53 pm51 °FOvercast.9 mph59%29.89 "Hg10 mi
5:53 pm52 °FOvercast.15 mph55%29.88 "Hg10 mi
4:53 pm53 °FOvercast.12 mph56%29.86 "Hg10 mi
3:53 pm53 °FScattered clouds.16 mph55%29.84 "Hg10 mi
2:53 pm55 °FOvercast.16 mph53%29.82 "Hg10 mi
1:53 pm59 °FPartly sunny.14 mph48%29.78 "Hg10 mi
12:53 pm58 °FPassing clouds.12 mph51%29.77 "Hg10 mi
11:53 am56 °FScattered clouds.16 mph53%29.77 "Hg10 mi
10:53 am55 °FPartly sunny.16 mph53%29.78 "Hg10 mi
9:53 am53 °FPartly sunny.12 mph56%29.77 "Hg10 mi
8:53 am51 °FOvercast.16 mph61%29.74 "Hg10 mi
7:53 am51 °FOvercast.9 mph61%29.71 "Hg10 mi
6:53 am51 °FOvercast.10 mph61%29.68 "Hg10 mi
5:53 am51 °FOvercast.12 mph61%29.65 "Hg10 mi
4:53 am52 °FOvercast.7 mph61%29.62 "Hg10 mi
3:53 am52 °FPassing clouds.13 mph61%29.59 "Hg10 mi
2:53 am53 °FOvercast.10 mph61%29.57 "Hg10 mi
Weather by CustomWeather, © 2019

See weather overview